Location: ??? ?????
(30.6482°N, 60.5850°E)
Time: 17:23:08
(UTC+00:00)

Cosmos 1943 Rocket - Pass Details

Date: 09 April 2020
Orbit: 811 x 845 km, 71.0° (Epoch: 06 June)

Event Time Altitude Azimuth Distance (km) Brightness Sun altitude
Rises 15:06:54 0° 334° (NNW) 3,358 6.0 -10.3°
Reaches altitude 10° 15:09:21 10° 331° (NNW) 2,428 5.3 -10.8°
Maximum altitude 15:14:47 56° 254° (WSW) 981 2.9 -11.9°
Drops below altitude 10° 15:20:14 10° 177° (S) 2,437 4.4 -13.0°
Sets 15:22:42 0° 173° (S) 3,373 5.1 -13.5°
